Date String (YYYY-MM-DD hh:mm:ss) UTC,Instrument flags,Ambient pressure (hPa),Sample flow (lpm),Bypass flow (lpm),Sample temperature (°C),Ambient temperature (°C),ASC tube jacket temperature (°C),LED temperature (°C),Box temperature (°C),Sample RH (%),Span deviation,Mass concentration (μg/m³),Mass concentration (μg/m³),Mass concentration (μg/m³)
DateTimeUTC,F1_M11,P_M11,Q1_M11,Q2_M11,T1_M11,T2_M11,T3_M11,T4_M11,T5_M11,U1_M11,ZSPAN_M11,X2_M11,X0_M11,X1_M11
2022-07-25 09:00:00,,0828.9,5.02,0.00,32.0,28.6,00.0,40.1,32.6,34.6,0000.0,0008.08,0013.84,0006.96
2022-07-25 09:01:00,,0828.8,4.99,0.00,32.0,28.6,00.0,40.2,32.5,34.8,0000.0,0008.16,0013.27,0007.06
2022-07-25 09:02:00,,0828.8,5.01,0.00,31.9,28.7,00.0,40.2,32.5,34.9,0000.0,0008.29,0013.30,0007.17
2022-07-25 09:03:00,,0828.7,4.99,0.00,31.9,28.8,00.0,40.2,32.5,35.0,0000.0,0008.44,0013.46,0007.30
2022-07-25 09:04:00,,0828.9,5.01,0.00,31.9,28.8,00.0,40.2,32.6,35.0,0001.3,0008.56,0013.60,0007.41
2022-07-25 09:05:00,,0829.0,5.00,0.00,32.0,28.9,00.0,40.2,32.7,34.7,0001.8,0008.61,0013.83,0007.49
2022-07-25 09:06:00,,0828.7,4.99,0.00,32.1,28.9,00.0,40.2,32.7,34.5,0001.3,0008.69,0013.65,0007.60
2022-07-25 09:07:00,,0828.9,5.02,0.00,32.1,29.0,00.0,40.2,32.7,34.6,0001.2,0008.89,0013.83,0007.76
2022-07-25 09:08:00,,0828.8,4.99,0.00,32.1,29.0,00.0,40.2,32.7,34.7,0001.0,0009.06,0014.02,0007.89
2022-07-25 09:09:00,,0828.9,4.99,0.00,32.1,29.0,00.0,40.2,32.7,34.7,0001.6,0009.14,0013.99,0007.98
2022-07-25 09:10:00,,0829.0,5.00,0.00,32.0,29.1,00.0,40.3,32.7,34.8,0000.9,0009.16,0013.55,0008.07
2022-07-25 09:11:00,,0828.9,5.01,0.00,32.0,29.1,00.0,40.3,32.7,34.9,0000.4,0009.22,0013.86,0008.13
2022-07-25 09:12:00,,0828.8,5.00,0.00,32.0,29.1,00.0,40.3,32.7,35.1,0000.1,0009.24,0014.42,0008.15
2022-07-25 09:13:00,,0828.9,5.00,0.00,32.1,29.2,00.0,40.3,32.8,34.8,-000.2,0009.24,0014.43,0008.16
2022-07-25 09:14:00,,0829.0,5.00,0.00,32.2,29.2,00.0,40.3,32.9,34.6,-000.2,0009.25,0014.45,0008.16
2022-07-25 09:15:00,,0829.1,5.00,0.00,32.2,29.2,00.0,40.3,32.8,34.6,-000.7,0009.28,0014.52,0008.15
2022-07-25 09:16:00,,0829.0,4.99,0.00,32.2,29.2,00.0,40.3,32.8,34.6,-000.8,0009.34,0014.29,0008.20
2022-07-25 09:17:00,,0828.9,5.01,0.00,32.2,29.2,00.0,40.4,32.8,34.6,-000.9,0009.38,0014.45,0008.22
2022-07-25 09:18:00,,0829.0,5.00,0.00,32.2,29.3,00.0,40.4,32.8,34.7,-001.2,0009.38,0014.56,0008.21
2022-07-25 09:19:00,,0829.0,5.01,0.00,32.2,29.3,00.0,40.4,32.8,34.7,-001.1,0009.35,0014.60,0008.19
2022-07-25 09:20:00,,0829.1,5.00,0.00,32.1,29.3,00.0,40.4,32.8,34.8,-001.0,0009.33,0015.44,0008.19
2022-07-25 09:21:00,,0829.1,5.00,0.00,32.1,29.3,00.0,40.4,32.8,34.8,-000.5,0009.33,0015.69,0008.18
2022-07-25 09:22:00,,0828.7,5.00,0.00,32.0,29.3,00.0,40.4,32.8,34.9,-000.6,0009.29,0015.48,0008.15
2022-07-25 09:23:00,,0828.9,5.00,0.00,32.0,29.3,00.0,40.4,32.9,35.1,-000.5,0009.30,0015.05,0008.16
2022-07-25 09:24:00,,0829.0,5.00,0.00,32.2,29.3,00.0,40.4,33.0,34.9,-000.6,0009.33,0015.17,0008.19
2022-07-25 09:25:00,,0829.1,5.00,0.00,32.4,29.0,00.0,40.4,33.0,34.4,-000.6,0009.35,0015.21,0008.22
2022-07-25 09:26:00,,0829.0,5.00,0.00,32.4,28.3,00.0,40.3,32.9,34.3,-000.1,0009.33,0015.11,0008.26
2022-07-25 09:27:00,,0829.0,5.01,0.00,32.4,27.9,00.0,40.3,32.8,34.3,-000.6,0009.35,0015.26,0008.30
2022-07-25 09:28:00,,0828.9,5.00,0.00,32.3,27.9,00.0,40.3,32.6,34.5,-000.4,0009.39,0015.22,0008.34
2022-07-25 09:29:00,,0828.9,4.99,0.00,32.2,27.9,00.0,40.3,32.5,34.8,-000.5,0009.39,0015.04,0008.40
2022-07-25 09:30:00,,0828.7,5.00,0.00,32.1,28.0,00.0,40.3,32.5,35.0,-001.1,0009.46,0014.97,0008.46
2022-07-25 09:31:00,,0829.0,5.01,0.00,32.0,28.1,00.0,40.3,32.5,35.0,-001.2,0009.55,0014.20,0008.54
2022-07-25 09:32:00,,0829.2,5.01,0.00,32.1,28.3,00.0,40.3,32.6,34.7,-001.2,0009.60,0014.00,0008.59
2022-07-25 09:33:00,,0829.1,4.99,0.00,32.1,28.4,00.0,40.3,32.6,34.7,-001.2,0009.67,0014.00,0008.67
2022-07-25 09:34:00,,0828.9,5.01,0.00,32.1,28.5,00.0,40.3,32.6,34.8,-001.2,0009.74,0014.16,0008.73
2022-07-25 09:35:00,,0828.7,4.99,0.00,32.1,28.6,00.0,40.3,32.6,34.9,-001.3,0009.80,0014.15,0008.78
2022-07-25 09:36:00,,0828.7,5.02,0.00,32.0,28.7,00.0,40.3,32.6,35.0,-001.4,0009.85,0014.24,0008.83
2022-07-25 09:37:00,,0828.8,5.01,0.00,32.1,28.8,00.0,40.3,32.6,35.0,-001.2,0009.91,0014.37,0008.87
2022-07-25 09:38:00,,0829.3,4.98,0.00,32.2,28.8,00.0,40.3,32.8,34.7,-001.0,0009.89,0014.25,0008.85
2022-07-25 09:39:00,,0829.2,5.00,0.00,32.2,28.9,00.0,40.3,32.8,34.6,-001.0,0009.89,0014.15,0008.86
2022-07-25 09:40:00,,0828.9,5.01,0.00,32.2,28.9,00.0,40.3,32.7,34.6,-001.3,0009.92,0014.29,0008.86
2022-07-25 09:41:00,,0828.8,4.99,0.00,32.2,29.0,00.0,40.3,32.7,34.7,-000.9,0009.90,0014.32,0008.87
2022-07-25 09:42:00,,0828.8,4.99,0.00,32.2,29.0,00.0,40.3,32.7,34.7,-001.1,0009.89,0014.30,0008.90
2022-07-25 09:43:00,,0828.9,4.99,0.00,32.1,29.1,00.0,40.4,32.7,34.8,-001.1,0009.94,0014.70,0008.95
2022-07-25 09:44:00,,0828.9,5.00,0.00,32.1,29.1,00.0,40.4,32.7,35.0,-001.0,0009.98,0015.12,0009.00
2022-07-25 09:45:00,,0829.1,5.01,0.00,32.1,29.1,00.0,40.4,32.8,35.0,-001.3,0009.96,0014.83,0009.02
2022-07-25 09:46:00,,0828.8,4.99,0.00,32.3,29.2,00.0,40.4,32.9,34.7,-001.4,0009.96,0014.91,0009.03
2022-07-25 09:47:00,,0828.8,4.99,0.00,32.4,29.2,00.0,40.4,32.9,34.5,-001.2,0009.97,0015.02,0009.04
2022-07-25 09:48:00,,0828.9,5.00,0.00,32.4,29.2,00.0,40.4,32.9,34.4,-001.4,0010.00,0015.13,0009.06
2022-07-25 09:49:00,,0828.9,5.01,0.00,32.4,29.3,00.0,40.4,32.9,34.4,-001.5,0010.03,0015.11,0009.09
2022-07-25 09:50:00,,0828.9,4.99,0.00,32.3,29.3,00.0,40.4,32.9,34.5,-001.7,0010.05,0015.05,0009.13
2022-07-25 09:51:00,,0828.9,5.00,0.00,32.3,29.3,00.0,40.5,32.9,34.6,-001.5,0010.01,0014.86,0009.14
2022-07-25 09:52:00,,0828.9,5.00,0.00,32.3,29.3,00.0,40.5,32.9,34.6,-001.7,0010.09,0014.92,0009.17
2022-07-25 09:53:00,,0828.9,4.99,0.00,32.2,29.4,00.0,40.5,32.9,34.7,-001.2,0010.15,0014.96,0009.20
2022-07-25 09:54:00,,0829.0,5.02,0.00,32.2,29.4,00.0,40.5,32.9,34.8,-001.1,0010.27,0014.84,0009.26
2022-07-25 09:55:00,,0829.0,5.00,0.00,32.2,29.4,00.0,40.5,32.9,34.8,-001.3,0010.33,0014.58,0009.30
2022-07-25 09:56:00,,0829.0,4.99,0.00,32.1,29.4,00.0,40.5,32.9,34.9,-001.0,0010.41,0014.58,0009.38
2022-07-25 09:57:00,,0829.0,5.01,0.00,32.1,29.5,00.0,40.5,33.0,35.1,-000.3,0010.50,0014.45,0009.49
2022-07-25 09:58:00,,0829.0,5.01,0.00,32.2,29.4,00.0,40.5,33.1,34.8,-000.8,0010.59,0014.40,0009.57
2022-07-25 09:59:00,,0829.0,4.99,0.00,32.3,28.7,00.0,40.4,33.0,34.5,-000.9,0010.65,0014.29,0009.66
